[[{"header":{"parameterUnit":"m.s-1","parameterCategory":1,"la1":30.2991,"la2":30.254,"lo1":-89.0895,"lo2":-89.0444,"dy":0.0017,"dx":0.0017,"nx":28,"ny":28,"refTime":"2025-07-23T21:00:00:Z","depth":0,"parameterNumber":2,"parameterNumberName":"U-component_of_WINDS"},"data":[0,0,0,0,0,0,0,0,0,0,0,0,0,0,0,0,0,0,0,0,0,0,0,0,0,0,0,0,0,0,0,0,0,0,0,0,0,0,0,0,0,0,0,0,0,0,0,0,0,0,0,0,0,0,0,0,0,0,-5.4184,-5.4186,0,-5.4389,-5.4391,-5.4394,-5.4427,-5.4426,-5.4424,-5.4422,-5.4628,-5.4635,-5.4642,0,0,0,0,0,0,0,0,0,0,0,0,0,-5.382,-5.3827,-5.4184,-5.4186,-5.4189,-5.4389,-5.4391,-5.4394,-5.4428,-5.4426,-5.4423,-5.4421,-5.4626,-5.4634,-5.4643,0,0,0,0,0,0,0,0,0,0,0,0,0,-5.3997,-5.3829,-5.4183,-5.423,-5.4236,-5.4388,-5.4392,-5.4395,-5.4428,-5.4426,-5.4423,-5.442,-5.4623,-5.4634,-5.4644,-5.4763,0,0,-5.4677,-5.4681,0,0,0,0,0,0,0,0,-5.3987,-5.401,-5.422,-5.4227,-5.4234,-5.438,-5.4339,-5.4518,-5.4429,-5.4355,-5.4422,-5.4419,-5.4548,-5.4564,-5.4608,-5.4773,-5.4781,-5.4678,-5.4684,-5.4689,-5.4692,0,0,0,0,0,0,0,-5.3974,-5.4001,-5.4265,-5.4223,-5.4232,-5.424,-5.4262,-5.4373,-5.4463,-5.4361,-5.4364,-5.4388,-5.4551,-5.4598,-5.4614,-5.4784,-5.4677,-5.4687,-5.4694,-5.4698,-5.5059,-5.5062,0,0,0,0,0,0,-5.3954,-5.3991,-5.4258,-5.4271,-5.4102,-5.4249,-5.4274,-5.4336,-5.4462,-5.4479,-5.439,-5.4389,-5.4581,-5.4601,-5.4621,-5.4769,-5.4689,-5.4699,-5.4705,-5.5056,-5.506,-5.5063,0,0,0,0,0,0,-5.3946,-5.3978,-5.425,-5.4132,-5.4167,-5.4258,-5.4327,-5.4341,-5.4388,-5.4484,-5.45,-5.4422,-5.458,-5.4606,-5.4728,-5.4776,-5.4704,-5.4713,-5.5052,-5.5057,-5.5062,-5.5065,0,0,0,0,0,0,-5.3936,-5.3975,-5.402,-5.4133,-5.4174,-5.4354,-5.433,-5.4347,-5.4407,-5.4408,-5.4518,-5.4534,-5.458,-5.4712,-5.4739,-5.479,-5.4722,-5.5048,-5.5054,-5.506,-5.5061,-5.5069,-5.5076,0,0,0,0,0,-5.3923,-5.4012,-5.4023,-5.4055,-5.4233,-5.4356,-5.438,-5.4431,-5.4411,-5.4458,-5.452,-5.4531,-5.4768,-5.4724,-5.4755,-5.4809,-5.5045,-5.5053,-5.506,-5.5057,-5.5068,-5.5076,0,0,0,0,0,0,-5.39,-5.4027,-5.404,-5.4169,-5.4252,-5.4362,-5.4422,-5.444,-5.4529,-5.4526,-5.4586,-5.461,-5.473,-5.4783,-5.4732,-5.4933,-5.4905,-5.4919,-5.4893,-5.4903,-5.4911,-5.4894,-5.4731,0,0,0,0,0,-5.391,-5.4001,-5.4107,-5.421,-5.4252,-5.433,-5.4386,-5.4419,-5.4507,-5.4541,-5.4613,-5.4697,-5.4791,-5.4851,-5.4942,-5.5071,-5.5095,-5.5124,-5.5131,-5.5137,-5.5147,-5.522,-5.5234,-5.5087,-5.5087,-5.5087,0,0,-5.3931,-5.4012,-5.4065,-5.4208,-5.4276,-5.4368,-5.4359,-5.4456,-5.4525,-5.4556,-5.4676,-5.4732,-5.483,-5.4956,-5.5015,-5.5004,-5.5194,-5.5147,-5.5151,-5.5157,-5.5229,-5.5243,-5.5255,-5.5092,-5.5091,-5.509,0,0,-5.4017,-5.4088,-5.4182,-5.4252,-5.4356,-5.4409,-5.4432,-5.4541,-5.4579,-5.4702,-5.4728,-5.4811,-5.4971,-5.504,-5.5096,-5.5214,-5.5227,-5.5243,-5.5281,-5.5352,-5.5364,-5.5374,-5.5415,-5.5429,-5.5253,-5.5253,-5.5253,0,-5.4029,-5.4169,-5.4227,-5.4325,-5.4387,-5.4423,-5.4519,-5.4584,-5.4712,-5.4754,-5.4741,-5.4945,-5.5013,-5.5156,-5.5186,-5.5231,-5.5258,-5.5228,-5.5358,-5.5369,-5.5379,-5.5419,-5.5435,-5.5254,-5.5254,-5.5254,-5.5254,0,-5.4179,-5.4277,-5.434,-5.4466,-5.4536,-5.4632,-5.4705,-5.4769,-5.4798,-5.4852,-5.4977,-5.5062,-5.5172,-5.521,-5.5238,-5.5358,-5.5348,-5.5346,-5.5318,-5.5393,-5.5432,-5.5448,-5.5255,-5.5255,-5.5255,-5.5255,0,0,-5.4249,-5.4411,-5.4433,-5.4491,-5.4612,-5.4688,-5.4788,-5.4898,-5.4951,-5.504,-5.5124,-5.5262,-5.5262,-5.5325,-5.5363,-5.5425,-5.5513,-5.5416,-5.5419,-5.5429,-5.5651,-5.565,-5.5666,-5.5525,-5.5528,-5.553,-5.5642,0,-5.4347,-5.4525,-5.4583,-5.4731,-5.4822,-5.4861,-5.4947,-5.5031,-5.5086,-5.5171,-5.5232,-5.5328,-5.5321,-5.536,-5.5424,-5.5488,-5.5558,-5.5482,-5.5602,-5.5605,-5.5572,-5.5687,-5.5685,-5.5786,-5.5658,-5.566,-5.5662,0,-5.4484,-5.4578,-5.4735,-5.4848,-5.4888,-5.4965,-5.5071,-5.5153,-5.525,-5.5286,-5.536,-5.5394,-5.5499,-5.547,-5.5616,-5.5563,-5.5616,-5.5656,-5.5662,-5.5672,-5.5635,-5.5697,-5.582,-5.5834,-5.5687,-5.5685,-5.5683,0,-5.4517,-5.4684,-5.48,-5.4849,-5.4984,-5.5037,-5.5095,-5.519,-5.5253,-5.5347,-5.5389,-5.5494,-5.555,-5.5631,-5.5692,-5.5665,-5.5833,-5.5808,-5.5864,-5.5863,-5.5894,-5.589,-5.6024,-5.5934,-5.5934,-5.5933,-5.5933,0,-5.4618,-5.4712,-5.4817,-5.4888,-5.4996,-5.5063,-5.5168,-5.5228,-5.5313,-5.5397,-5.5438,-5.5515,-5.5593,-5.5681,-5.5731,-5.5844,-5.587,-5.5901,-5.5912,-5.5896,-5.5891,-5.5928,-5.5922,-5.5937,-5.5937,-5.5936,-5.5935,0,-5.4671,-5.4746,-5.4875,-5.4994,-5.5026,-5.51,-5.5201,-5.5272,-5.5331,-5.5437,-5.5465,-5.5557,-5.5664,-5.5735,-5.587,-5.5903,-5.6026,-5.6037,-5.5993,-5.5998,-5.605,-5.6043,-5.6209,-5.6234,-5.6129,-5.613,-5.6131,0,-5.4729,-5.4803,-5.4931,-5.4991,-5.5051,-5.5146,-5.5212,-5.5283,-5.535,-5.5469,-5.5525,-5.5635,-5.5726,-5.5895,-5.5973,-5.6078,-5.609,-5.6142,-5.6105,-5.6087,-5.6089,-5.6082,-5.609,-5.6145,-5.6146,-5.6147,-5.6147,0,-5.4823,-5.4857,-5.4951,-5.506,-5.5139,-5.5227,-5.5315,-5.5362,-5.5448,-5.5522,-5.5632,-5.5703,-5.5844,-5.5952,-5.6065,-5.6126,-5.6151,-5.6159,-5.6177,-5.6159,-5.6129,-5.6144,-5.6006,-5.6153,-5.6153,-5.6152,-5.6152,-5.6152,-5.4879,-5.4947,-5.5049,-5.5153,-5.5229,-5.5312,-5.5384,-5.5455,-5.5548,-5.5669,-5.5706,-5.5821,-5.5919,-5.6074,-5.6137,-5.6228,-5.6222,-5.6249,-5.6255,-5.626,-5.6259,-5.6119,-5.6249,-5.6249,-5.6249,-5.6249,-5.6249,0,-5.4973,-5.5042,-5.5138,-5.5262,-5.5345,-5.5366,-5.5466,-5.5533,-5.5634,-5.5725,-5.5816,-5.5944,-5.6051,-5.614,-5.625,-5.6306,-5.6321,-5.6333,-5.6327,-5.6341,-5.6258,-5.6231,-5.6319,-5.6319,-5.6319,-5.6319,-5.6319,-5.6319,-5.5032,-5.5149,-5.5196,-5.5351,-5.542,-5.5534,-5.559,-5.5667,-5.574,-5.5881,-5.5971,-5.603,-5.6121,-5.6239,-5.6338,-5.6362,-5.64,-5.6409,-5.6434,-5.6355,-5.6346,-5.6339,-5.6313,-5.6417,-5.6417,-5.6509,-5.651,-5.651]},{"header":{"parameterUnit":"m.s-1","parameterCategory":1,"la1":30.2991,"la2":30.254,"lo1":-89.0895,"lo2":-89.0444,"dy":0.0017,"dx":0.0017,"nx":28,"ny":28,"refTime":"2025-07-23T21:00:00:Z","depth":0,"parameterNumber":3,"parameterNumberName":"V-component_of_WINDS"},"data":[0,0,0,0,0,0,0,0,0,0,0,0,0,0,0,0,0,0,0,0,0,0,0,0,0,0,0,0,0,0,0,0,0,0,0,0,0,0,0,0,0,0,0,0,0,0,0,0,0,0,0,0,0,0,0,0,0,0,1.0632,1.0632,0,1.0588,1.0587,1.0587,1.0668,1.0671,1.0674,1.0676,1.0629,1.0625,1.0621,0,0,0,0,0,0,0,0,0,0,0,0,0,1.0787,1.0783,1.0633,1.0632,1.0631,1.0588,1.0587,1.0587,1.0668,1.0671,1.0675,1.0678,1.063,1.0626,1.0621,0,0,0,0,0,0,0,0,0,0,0,0,0,1.0729,1.0782,1.0633,1.0667,1.0669,1.0588,1.0587,1.0587,1.0667,1.0671,1.0675,1.0679,1.0632,1.0626,1.062,1.0503,0,0,1.0603,1.06,0,0,0,0,0,0,0,0,1.0732,1.0723,1.0662,1.0664,1.0667,1.0638,1.0624,1.0558,1.0666,1.0668,1.0677,1.0681,1.0628,1.0623,1.0606,1.0501,1.0499,1.0602,1.0599,1.0596,1.0595,0,0,0,0,0,0,0,1.0736,1.0725,1.0615,1.0661,1.0664,1.0684,1.068,1.0612,1.0626,1.0668,1.0674,1.0668,1.0631,1.0611,1.0605,1.0498,1.0603,1.0597,1.0594,1.0592,1.0294,1.0289,0,0,0,0,0,0,1.0736,1.0728,1.0616,1.0614,1.071,1.0678,1.0674,1.0643,1.0627,1.0628,1.0664,1.0672,1.0619,1.0612,1.0604,1.0464,1.0597,1.0591,1.0588,1.0298,1.0293,1.0288,0,0,0,0,0,0,1.0739,1.0725,1.0618,1.0672,1.066,1.0671,1.0636,1.064,1.0621,1.0624,1.0626,1.0642,1.0622,1.0612,1.0527,1.0464,1.0589,1.0583,1.0303,1.0296,1.029,1.0184,0,0,0,0,0,0,1.0743,1.0726,1.0681,1.0671,1.0657,1.0542,1.0632,1.0636,1.0611,1.062,1.0604,1.0605,1.0624,1.0535,1.0522,1.0458,1.0579,1.0309,1.03,1.0292,1.0193,1.0175,1.0159,0,0,0,0,0,1.0748,1.0653,1.0679,1.0665,1.0602,1.0539,1.0531,1.0556,1.0605,1.0561,1.0563,1.0605,1.0473,1.0526,1.0511,1.0445,1.0313,1.0303,1.0293,1.0201,1.0178,1.0159,0,0,0,0,0,0,1.0656,1.0652,1.0681,1.058,1.0559,1.0552,1.0497,1.0531,1.0495,1.0505,1.0537,1.0533,1.0441,1.0435,1.0494,1.033,1.0402,1.0388,1.0337,1.0315,1.0298,1.03,1.0574,0,0,0,0,0,1.0624,1.0573,1.0573,1.0484,1.0472,1.0486,1.0459,1.048,1.046,1.0451,1.0447,1.0425,1.0378,1.0347,1.0305,1.0194,1.019,1.0141,1.0124,1.0109,1.0096,1.0036,1.0013,1.0255,1.0255,1.0255,0,0,1.0557,1.0549,1.0515,1.0465,1.0451,1.0397,1.0478,1.0417,1.0377,1.0442,1.0361,1.0357,1.0335,1.0236,1.0193,1.0228,1.0029,1.0096,1.0085,1.008,1.0023,1.0,0.998,1.0248,1.0249,1.025,0,0,1.0406,1.0396,1.032,1.0305,1.0283,1.0293,1.0275,1.0263,1.0263,1.0183,1.023,1.0183,1.0103,1.0084,1.0064,0.9907,0.9944,0.9893,0.9801,0.9741,0.9722,0.9705,0.9647,0.9626,0.988,0.988,0.988,0,1.0325,1.0246,1.0276,1.0212,1.0188,1.0245,1.0168,1.0151,1.0116,1.0098,1.014,1.0039,1.0028,0.9925,0.9887,0.987,0.9849,0.9893,0.9723,0.9706,0.9691,0.9636,0.9614,0.9874,0.9874,0.9875,0.9876,0,1.0147,1.0091,1.0032,0.9997,0.9967,0.9896,0.9915,0.9881,0.9905,0.991,0.9828,0.9817,0.9772,0.975,0.9773,0.965,0.9673,0.9718,0.979,0.9661,0.961,0.9589,0.9865,0.9867,0.9869,0.987,0,0,0.9935,0.9918,0.9896,0.988,0.986,0.9817,0.9749,0.9707,0.9676,0.965,0.9593,0.9524,0.9565,0.9543,0.9564,0.9512,0.9386,0.9564,0.9564,0.9529,0.9248,0.9212,0.9187,0.9412,0.9408,0.9405,0.9249,0,0.9784,0.9667,0.9692,0.9576,0.9524,0.9578,0.9518,0.9499,0.9503,0.9459,0.9463,0.9413,0.9472,0.9459,0.941,0.9412,0.933,0.9424,0.9357,0.9354,0.9358,0.9161,0.9123,0.8976,0.9229,0.9226,0.9224,0,0.9592,0.9559,0.9438,0.9425,0.9405,0.935,0.9313,0.9271,0.925,0.9256,0.9231,0.9262,0.9194,0.9269,0.9174,0.9238,0.9213,0.9209,0.9204,0.9197,0.9279,0.9146,0.893,0.8907,0.9193,0.9195,0.9197,0,0.9447,0.9373,0.929,0.9275,0.926,0.922,0.9212,0.9195,0.9168,0.9135,0.9117,0.9077,0.9054,0.9022,0.9041,0.9094,0.8943,0.902,0.8944,0.8943,0.8908,0.8909,0.8682,0.8895,0.8896,0.8896,0.8897,0,0.9274,0.9197,0.9224,0.9173,0.9088,0.9118,0.9033,0.9032,0.9017,0.8965,0.9011,0.8961,0.8992,0.8945,0.896,0.8878,0.8868,0.887,0.8875,0.8865,0.8864,0.8846,0.8856,0.889,0.8892,0.8893,0.8894,0,0.9097,0.9112,0.9025,0.9018,0.9014,0.8951,0.8945,0.8897,0.8905,0.8839,0.8826,0.8837,0.8784,0.8801,0.8745,0.8755,0.865,0.8669,0.8657,0.866,0.8583,0.8589,0.8335,0.8302,0.8539,0.8537,0.8535,0,0.8984,0.8926,0.8912,0.8881,0.887,0.8819,0.8791,0.8819,0.8788,0.876,0.8715,0.8666,0.8629,0.8542,0.8545,0.8502,0.8518,0.8432,0.8512,0.8503,0.8514,0.8516,0.8509,0.8415,0.8413,0.841,0.8409,0,0.8782,0.8792,0.875,0.871,0.8675,0.8645,0.8619,0.8591,0.8617,0.858,0.8526,0.8497,0.8439,0.839,0.8351,0.8342,0.8378,0.8384,0.8364,0.8351,0.8345,0.8345,0.861,0.8389,0.8391,0.8392,0.8393,0.8394,0.8632,0.8582,0.8564,0.8516,0.8499,0.8473,0.8427,0.8429,0.8385,0.834,0.836,0.8297,0.8278,0.823,0.8216,0.8167,0.82,0.8172,0.8164,0.8156,0.8145,0.8355,0.8161,0.8161,0.8162,0.8162,0.8163,0,0.843,0.8421,0.8376,0.8338,0.8299,0.8339,0.8312,0.8276,0.8221,0.82,0.8162,0.81,0.8053,0.8052,0.8008,0.7969,0.7984,0.7956,0.7958,0.7955,0.8119,0.814,0.7944,0.7944,0.7944,0.7944,0.7944,0.7944,0.832,0.8237,0.8245,0.8155,0.8147,0.8086,0.8067,0.8043,0.8027,0.7956,0.7916,0.7916,0.7903,0.7858,0.7816,0.7817,0.7797,0.7762,0.7769,0.7922,0.7943,0.7964,0.7983,0.7758,0.7758,0.7609,0.7607,0.7606]}]]